owner,sensor,date,latitude,longitude,vertical_datum,wind_speed,wind_to_direction,wind_speed_of_gust,qcFlag 
ENP,ioos.station.NOAA.NDBC:WRBF1:1,2017-04-01T00:00:00Z,25.0720,-80.7350,1.0,3.1,180.0,-9999.0,'1111122,1111122,1111122' 
ENP,ioos.station.NOAA.NDBC:WRBF1:1,2017-04-01T06:00:00Z,25.0720,-80.7350,1.0,2.6,170.0,-9999.0,'1111122,1111122,1111122' 
ENP,ioos.station.NOAA.NDBC:WRBF1:1,2017-04-01T07:00:00Z,25.0720,-80.7350,1.0,1.5,160.0,-9999.0,'1111122,1111122,1111122' 
ENP,ioos.station.NOAA.NDBC:WRBF1:1,2017-04-01T08:00:00Z,25.0720,-80.7350,1.0,1.0,170.0,-9999.0,'1111122,1111122,1111122' 
ENP,ioos.station.NOAA.NDBC:WRBF1:1,2017-04-01T10:00:00Z,25.0720,-80.7350,1.0,1.0,160.0,-9999.0,'1111122,1111122,1111122' 
ENP,ioos.station.NOAA.NDBC:WRBF1:1,2017-04-01T12:00:00Z,25.0720,-80.7350,1.0,3.6,360.0,-9999.0,'1111122,1111122,1111122' 
ENP,ioos.station.NOAA.NDBC:WRBF1:1,2017-04-01T13:00:00Z,25.0720,-80.7350,1.0,3.6,10.0,-9999.0,'1111122,1111122,1111122' 
ENP,ioos.station.NOAA.NDBC:WRBF1:1,2017-04-01T14:00:00Z,25.0720,-80.7350,1.0,2.6,20.0,-9999.0,'1111122,1111122,1111122' 
ENP,ioos.station.NOAA.NDBC:WRBF1:1,2017-04-01T15:00:00Z,25.0720,-80.7350,1.0,1.5,50.0,-9999.0,'1111122,1111122,1111122' 
ENP,ioos.station.NOAA.NDBC:WRBF1:1,2017-04-01T17:00:00Z,25.0720,-80.7350,1.0,1.5,200.0,-9999.0,'1111122,1111122,1111122' 
ENP,ioos.station.NOAA.NDBC:WRBF1:1,2017-04-01T18:00:00Z,25.0720,-80.7350,1.0,1.0,210.0,-9999.0,'1111122,1111122,1111122' 
ENP,ioos.station.NOAA.NDBC:WRBF1:1,2017-04-01T19:00:00Z,25.0720,-80.7350,1.0,1.5,210.0,-9999.0,'1111122,1111122,1111122' 
ENP,ioos.station.NOAA.NDBC:WRBF1:1,2017-04-01T20:00:00Z,25.0720,-80.7350,1.0,1.0,220.0,-9999.0,'1111122,1111122,1111122' 
ENP,ioos.station.NOAA.NDBC:WRBF1:1,2017-04-01T21:00:00Z,25.0720,-80.7350,1.0,1.0,200.0,-9999.0,'1111122,1111122,1111122' 
ENP,ioos.station.NOAA.NDBC:WRBF1:1,2017-04-01T22:00:00Z,25.0720,-80.7350,1.0,2.1,170.0,-9999.0,'1111122,1111122,1111122' 
ENP,ioos.station.NOAA.NDBC:WRBF1:1,2017-04-01T23:00:00Z,25.0720,-80.7350,1.0,1.5,160.0,-9999.0,'1111122,1111122,1111122' 
ENP,ioos.station.NOAA.NDBC:WRBF1:1,2017-04-02T00:00:00Z,25.0720,-80.7350,1.0,1.5,140.0,-9999.0,'1111122,1111122,1111122' 
ENP,ioos.station.NOAA.NDBC:WRBF1:1,2017-04-02T03:00:00Z,25.0720,-80.7350,1.0,1.5,150.0,-9999.0,'1111122,1111122,1111122' 
ENP,ioos.station.NOAA.NDBC:WRBF1:1,2017-04-02T06:00:00Z,25.0720,-80.7350,1.0,1.0,150.0,-9999.0,'1111122,1111122,1111122' 
ENP,ioos.station.NOAA.NDBC:WRBF1:1,2017-04-02T07:00:00Z,25.0720,-80.7350,1.0,2.1,170.0,-9999.0,'1111122,1111122,1111122' 
ENP,ioos.station.NOAA.NDBC:WRBF1:1,2017-04-02T08:00:00Z,25.0720,-80.7350,1.0,1.0,160.0,-9999.0,'1111122,1111122,1111122' 
ENP,ioos.station.NOAA.NDBC:WRBF1:1,2017-04-02T10:00:00Z,25.0720,-80.7350,1.0,1.0,150.0,-9999.0,'1111122,1111122,1111122' 
ENP,ioos.station.NOAA.NDBC:WRBF1:1,2017-04-02T11:00:00Z,25.0720,-80.7350,1.0,1.0,90.0,-9999.0,'1111122,1111122,1111122' 
ENP,ioos.station.NOAA.NDBC:WRBF1:1,2017-04-02T12:00:00Z,25.0720,-80.7350,1.0,1.0,100.0,-9999.0,'1111122,1111122,1111122' 
ENP,ioos.station.NOAA.NDBC:WRBF1:1,2017-04-02T13:00:00Z,25.0720,-80.7350,1.0,2.6,80.0,-9999.0,'1111122,1111122,1111122' 
ENP,ioos.station.NOAA.NDBC:WRBF1:1,2017-04-02T14:00:00Z,25.0720,-80.7350,1.0,1.5,80.0,-9999.0,'1111122,1111122,1111122' 
ENP,ioos.station.NOAA.NDBC:WRBF1:1,2017-04-02T15:00:00Z,25.0720,-80.7350,1.0,1.5,80.0,-9999.0,'1111122,1111122,1111122' 
ENP,ioos.station.NOAA.NDBC:WRBF1:1,2017-04-02T16:00:00Z,25.0720,-80.7350,1.0,1.5,80.0,-9999.0,'1111122,1111122,1111122' 
ENP,ioos.station.NOAA.NDBC:WRBF1:1,2017-04-02T17:00:00Z,25.0720,-80.7350,1.0,0.5,80.0,-9999.0,'1111122,1111122,1111122' 
ENP,ioos.station.NOAA.NDBC:WRBF1:1,2017-04-02T18:00:00Z,25.0720,-80.7350,1.0,1.0,90.0,-9999.0,'1111122,1111122,1111122' 
ENP,ioos.station.NOAA.NDBC:WRBF1:1,2017-04-02T19:00:00Z,25.0720,-80.7350,1.0,1.0,80.0,-9999.0,'1111122,1111122,1111122' 
ENP,ioos.station.NOAA.NDBC:WRBF1:1,2017-04-02T20:00:00Z,25.0720,-80.7350,1.0,1.5,80.0,-9999.0,'1111122,1111122,1111122' 
ENP,ioos.station.NOAA.NDBC:WRBF1:1,2017-04-02T21:00:00Z,25.0720,-80.7350,1.0,2.6,90.0,-9999.0,'1111122,1111122,1111122' 
ENP,ioos.station.NOAA.NDBC:WRBF1:1,2017-04-02T22:00:00Z,25.0720,-80.7350,1.0,3.6,90.0,-9999.0,'1111122,1111122,1111122' 
ENP,ioos.station.NOAA.NDBC:WRBF1:1,2017-04-02T23:00:00Z,25.0720,-80.7350,1.0,3.6,80.0,-9999.0,'1111122,1111122,1111122' 
ENP,ioos.station.NOAA.NDBC:WRBF1:1,2017-04-03T00:00:00Z,25.0720,-80.7350,1.0,4.1,80.0,-9999.0,'1111122,1111122,1111122' 
ENP,ioos.station.NOAA.NDBC:WRBF1:1,2017-04-03T03:00:00Z,25.0720,-80.7350,1.0,5.1,80.0,-9999.0,'1111122,1111122,1111122' 
ENP,ioos.station.NOAA.NDBC:WRBF1:1,2017-04-03T05:00:00Z,25.0720,-80.7350,1.0,3.1,100.0,-9999.0,'1111122,1111122,1111122' 
ENP,ioos.station.NOAA.NDBC:WRBF1:1,2017-04-03T06:00:00Z,25.0720,-80.7350,1.0,3.1,110.0,-9999.0,'1111122,1111122,1111122' 
ENP,ioos.station.NOAA.NDBC:WRBF1:1,2017-04-03T07:00:00Z,25.0720,-80.7350,1.0,2.6,110.0,-9999.0,'1111122,1111122,1111122' 
ENP,ioos.station.NOAA.NDBC:WRBF1:1,2017-04-03T08:00:00Z,25.0720,-80.7350,1.0,2.1,120.0,-9999.0,'1111122,1111122,1111122' 
ENP,ioos.station.NOAA.NDBC:WRBF1:1,2017-04-03T10:00:00Z,25.0720,-80.7350,1.0,2.1,110.0,-9999.0,'1111122,1111122,1111122' 
ENP,ioos.station.NOAA.NDBC:WRBF1:1,2017-04-03T11:00:00Z,25.0720,-80.7350,1.0,2.6,110.0,-9999.0,'1111122,1111122,1111122' 
ENP,ioos.station.NOAA.NDBC:WRBF1:1,2017-04-03T12:00:00Z,25.0720,-80.7350,1.0,2.6,110.0,-9999.0,'1111122,1111122,1111122' 
ENP,ioos.station.NOAA.NDBC:WRBF1:1,2017-04-03T13:00:00Z,25.0720,-80.7350,1.0,1.5,110.0,-9999.0,'1111122,1111122,1111122' 
ENP,ioos.station.NOAA.NDBC:WRBF1:1,2017-04-03T14:00:00Z,25.0720,-80.7350,1.0,1.0,100.0,-9999.0,'1111122,1111122,1111122' 
ENP,ioos.station.NOAA.NDBC:WRBF1:1,2017-04-03T15:00:00Z,25.0720,-80.7350,1.0,1.0,100.0,-9999.0,'1111122,1111122,1111122' 
ENP,ioos.station.NOAA.NDBC:WRBF1:1,2017-04-03T16:00:00Z,25.0720,-80.7350,1.0,3.1,110.0,-9999.0,'1111122,1111122,1111122' 
ENP,ioos.station.NOAA.NDBC:WRBF1:1,2017-04-03T17:00:00Z,25.0720,-80.7350,1.0,3.1,120.0,-9999.0,'1111122,1111122,1111122' 
ENP,ioos.station.NOAA.NDBC:WRBF1:1,2017-04-03T18:00:00Z,25.0720,-80.7350,1.0,2.6,110.0,-9999.0,'1111122,1111122,1111122' 
ENP,ioos.station.NOAA.NDBC:WRBF1:1,2017-04-03T19:00:00Z,25.0720,-80.7350,1.0,1.5,110.0,-9999.0,'1111122,1111122,1111122' 
ENP,ioos.station.NOAA.NDBC:WRBF1:1,2017-04-03T20:00:00Z,25.0720,-80.7350,1.0,2.6,120.0,-9999.0,'1111122,1111122,1111122' 
ENP,ioos.station.NOAA.NDBC:WRBF1:1,2017-04-03T21:00:00Z,25.0720,-80.7350,1.0,2.1,110.0,-9999.0,'1111122,1111122,1111122' 
ENP,ioos.station.NOAA.NDBC:WRBF1:1,2017-04-03T23:00:00Z,25.0720,-80.7350,1.0,3.6,110.0,-9999.0,'1111122,1111122,1111122' 
ENP,ioos.station.NOAA.NDBC:WRBF1:1,2017-04-04T00:00:00Z,25.0720,-80.7350,1.0,3.1,100.0,-9999.0,'1111122,1111122,1111122' 
ENP,ioos.station.NOAA.NDBC:WRBF1:1,2017-04-04T03:00:00Z,25.0720,-80.7350,1.0,3.1,100.0,-9999.0,'1111122,1111122,1111122' 
ENP,ioos.station.NOAA.NDBC:WRBF1:1,2017-04-04T06:00:00Z,25.0720,-80.7350,1.0,2.6,130.0,-9999.0,'1111122,1111122,1111122' 
ENP,ioos.station.NOAA.NDBC:WRBF1:1,2017-04-04T07:00:00Z,25.0720,-80.7350,1.0,2.6,120.0,-9999.0,'1111122,1111122,1111122' 
ENP,ioos.station.NOAA.NDBC:WRBF1:1,2017-04-04T08:00:00Z,25.0720,-80.7350,1.0,2.6,130.0,-9999.0,'1111122,1111122,1111122' 
ENP,ioos.station.NOAA.NDBC:WRBF1:1,2017-04-04T10:00:00Z,25.0720,-80.7350,1.0,2.1,130.0,-9999.0,'1111122,1111122,1111122' 
ENP,ioos.station.NOAA.NDBC:WRBF1:1,2017-04-04T11:00:00Z,25.0720,-80.7350,1.0,2.1,130.0,-9999.0,'1111122,1111122,1111122' 
ENP,ioos.station.NOAA.NDBC:WRBF1:1,2017-04-04T12:00:00Z,25.0720,-80.7350,1.0,2.1,120.0,-9999.0,'1111122,1111122,1111122' 
ENP,ioos.station.NOAA.NDBC:WRBF1:1,2017-04-04T13:00:00Z,25.0720,-80.7350,1.0,2.1,120.0,-9999.0,'1111122,1111122,1111122' 
ENP,ioos.station.NOAA.NDBC:WRBF1:1,2017-04-04T15:00:00Z,25.0720,-80.7350,1.0,2.1,130.0,-9999.0,'1111122,1111122,1111122' 
ENP,ioos.station.NOAA.NDBC:WRBF1:1,2017-04-04T16:00:00Z,25.0720,-80.7350,1.0,0.5,130.0,-9999.0,'1111122,1111122,1111122' 
ENP,ioos.station.NOAA.NDBC:WRBF1:1,2017-04-04T17:00:00Z,25.0720,-80.7350,1.0,0.5,140.0,-9999.0,'1111122,1111122,1111122' 
ENP,ioos.station.NOAA.NDBC:WRBF1:1,2017-04-04T18:00:00Z,25.0720,-80.7350,1.0,1.0,150.0,-9999.0,'1111122,1111122,1111122' 
ENP,ioos.station.NOAA.NDBC:WRBF1:1,2017-04-04T19:00:00Z,25.0720,-80.7350,1.0,2.6,140.0,-9999.0,'1111122,1111122,1111122' 
ENP,ioos.station.NOAA.NDBC:WRBF1:1,2017-04-04T20:00:00Z,25.0720,-80.7350,1.0,2.1,140.0,-9999.0,'1111122,1111122,1111122' 
ENP,ioos.station.NOAA.NDBC:WRBF1:1,2017-04-04T21:00:00Z,25.0720,-80.7350,1.0,1.5,120.0,-9999.0,'1111122,1111122,1111122' 
ENP,ioos.station.NOAA.NDBC:WRBF1:1,2017-04-06T13:00:00Z,25.0720,-80.7350,1.0,5.1,210.0,-9999.0,'1111122,1111122,1111122' 
ENP,ioos.station.NOAA.NDBC:WRBF1:1,2017-04-06T14:00:00Z,25.0720,-80.7350,1.0,5.1,220.0,-9999.0,'1111122,1111122,1111122' 
ENP,ioos.station.NOAA.NDBC:WRBF1:1,2017-04-06T15:00:00Z,25.0720,-80.7350,1.0,4.6,220.0,-9999.0,'1111122,1111122,1111122' 
ENP,ioos.station.NOAA.NDBC:WRBF1:1,2017-04-06T16:00:00Z,25.0720,-80.7350,1.0,3.1,220.0,-9999.0,'1111122,1111122,1111122' 
ENP,ioos.station.NOAA.NDBC:WRBF1:1,2017-04-06T17:00:00Z,25.0720,-80.7350,1.0,7.7,200.0,-9999.0,'1111122,1111122,1111122' 
ENP,ioos.station.NOAA.NDBC:WRBF1:1,2017-04-06T18:00:00Z,25.0720,-80.7350,1.0,7.7,200.0,-9999.0,'1111122,1111122,1111122' 
ENP,ioos.station.NOAA.NDBC:WRBF1:1,2017-04-06T19:00:00Z,25.0720,-80.7350,1.0,8.8,210.0,-9999.0,'1111122,1111122,1111122' 
ENP,ioos.station.NOAA.NDBC:WRBF1:1,2017-04-06T20:00:00Z,25.0720,-80.7350,1.0,9.3,230.0,-9999.0,'1111122,1111122,1111122' 
ENP,ioos.station.NOAA.NDBC:WRBF1:1,2017-04-06T21:00:00Z,25.0720,-80.7350,1.0,9.8,220.0,-9999.0,'1111122,1111122,1111122' 
ENP,ioos.station.NOAA.NDBC:WRBF1:1,2017-04-06T22:00:00Z,25.0720,-80.7350,1.0,9.8,230.0,-9999.0,'1111122,1111122,1111122' 
ENP,ioos.station.NOAA.NDBC:WRBF1:1,2017-04-06T23:00:00Z,25.0720,-80.7350,1.0,8.2,250.0,-9999.0,'1111122,1111122,1111122' 
ENP,ioos.station.NOAA.NDBC:WRBF1:1,2017-04-07T00:00:00Z,25.0720,-80.7350,1.0,6.7,270.0,-9999.0,'1111122,1111122,1111122' 
ENP,ioos.station.NOAA.NDBC:WRBF1:1,2017-04-07T02:00:00Z,25.0720,-80.7350,1.0,7.2,280.0,-9999.0,'1111122,1111122,1111122' 
ENP,ioos.station.NOAA.NDBC:WRBF1:1,2017-04-07T03:00:00Z,25.0720,-80.7350,1.0,7.7,300.0,-9999.0,'1111122,1111122,1111122' 
ENP,ioos.station.NOAA.NDBC:WRBF1:1,2017-04-07T05:00:00Z,25.0720,-80.7350,1.0,8.8,300.0,-9999.0,'1111122,1111122,1111122' 
ENP,ioos.station.NOAA.NDBC:WRBF1:1,2017-04-07T06:00:00Z,25.0720,-80.7350,1.0,8.8,300.0,-9999.0,'1111122,1111122,1111122' 
ENP,ioos.station.NOAA.NDBC:WRBF1:1,2017-04-07T07:00:00Z,25.0720,-80.7350,1.0,8.8,310.0,-9999.0,'1111122,1111122,1111122' 
ENP,ioos.station.NOAA.NDBC:WRBF1:1,2017-04-07T08:00:00Z,25.0720,-80.7350,1.0,9.3,320.0,-9999.0,'1111122,1111122,1111122' 
ENP,ioos.station.NOAA.NDBC:WRBF1:1,2017-04-07T10:00:00Z,25.0720,-80.7350,1.0,9.3,330.0,-9999.0,'1111122,1111122,1111122' 
ENP,ioos.station.NOAA.NDBC:WRBF1:1,2017-04-07T11:00:00Z,25.0720,-80.7350,1.0,9.3,330.0,-9999.0,'1111122,1111122,1111122' 
ENP,ioos.station.NOAA.NDBC:WRBF1:1,2017-04-07T12:00:00Z,25.0720,-80.7350,1.0,9.3,330.0,-9999.0,'1111122,1111122,1111122' 
ENP,ioos.station.NOAA.NDBC:WRBF1:1,2017-04-07T13:00:00Z,25.0720,-80.7350,1.0,7.7,330.0,-9999.0,'1111122,1111122,1111122' 
ENP,ioos.station.NOAA.NDBC:WRBF1:1,2017-04-07T14:00:00Z,25.0720,-80.7350,1.0,7.2,320.0,-9999.0,'1111122,1111122,1111122' 
ENP,ioos.station.NOAA.NDBC:WRBF1:1,2017-04-07T15:00:00Z,25.0720,-80.7350,1.0,7.7,340.0,-9999.0,'1111122,1111122,1111122' 
ENP,ioos.station.NOAA.NDBC:WRBF1:1,2017-04-07T16:00:00Z,25.0720,-80.7350,1.0,4.6,340.0,-9999.0,'1111122,1111122,1111122' 
ENP,ioos.station.NOAA.NDBC:WRBF1:1,2017-04-07T17:00:00Z,25.0720,-80.7350,1.0,4.1,330.0,-9999.0,'1111122,1111122,1111122' 
ENP,ioos.station.NOAA.NDBC:WRBF1:1,2017-04-07T18:00:00Z,25.0720,-80.7350,1.0,5.1,330.0,-9999.0,'1111122,1111122,1111122' 
ENP,ioos.station.NOAA.NDBC:WRBF1:1,2017-04-07T19:00:00Z,25.0720,-80.7350,1.0,2.6,300.0,-9999.0,'1111122,1111122,1111122' 
ENP,ioos.station.NOAA.NDBC:WRBF1:1,2017-04-07T20:00:00Z,25.0720,-80.7350,1.0,3.6,270.0,-9999.0,'1111122,1111122,1111122' 
ENP,ioos.station.NOAA.NDBC:WRBF1:1,2017-04-07T21:00:00Z,25.0720,-80.7350,1.0,4.1,240.0,-9999.0,'1111122,1111122,1111122' 
ENP,ioos.station.NOAA.NDBC:WRBF1:1,2017-04-07T22:00:00Z,25.0720,-80.7350,1.0,8.2,240.0,-9999.0,'1111122,1111122,1111122' 
ENP,ioos.station.NOAA.NDBC:WRBF1:1,2017-04-07T23:00:00Z,25.0720,-80.7350,1.0,8.8,240.0,-9999.0,'1111122,1111122,1111122' 
ENP,ioos.station.NOAA.NDBC:WRBF1:1,2017-04-08T00:00:00Z,25.0720,-80.7350,1.0,8.2,260.0,-9999.0,'1111122,1111122,1111122' 
ENP,ioos.station.NOAA.NDBC:WRBF1:1,2017-04-08T03:00:00Z,25.0720,-80.7350,1.0,7.2,300.0,-9999.0,'1111122,1111122,1111122' 
ENP,ioos.station.NOAA.NDBC:WRBF1:1,2017-04-08T06:00:00Z,25.0720,-80.7350,1.0,9.8,320.0,-9999.0,'1111122,1111122,1111122' 
ENP,ioos.station.NOAA.NDBC:WRBF1:1,2017-04-08T07:00:00Z,25.0720,-80.7350,1.0,9.3,320.0,-9999.0,'1111122,1111122,1111122' 
ENP,ioos.station.NOAA.NDBC:WRBF1:1,2017-04-08T08:00:00Z,25.0720,-80.7350,1.0,9.8,330.0,-9999.0,'1111122,1111122,1111122' 
ENP,ioos.station.NOAA.NDBC:WRBF1:1,2017-04-08T10:00:00Z,25.0720,-80.7350,1.0,8.8,330.0,-9999.0,'1111122,1111122,1111122' 
ENP,ioos.station.NOAA.NDBC:WRBF1:1,2017-04-08T11:00:00Z,25.0720,-80.7350,1.0,6.7,330.0,-9999.0,'1111122,1111122,1111122' 
ENP,ioos.station.NOAA.NDBC:WRBF1:1,2017-04-08T12:00:00Z,25.0720,-80.7350,1.0,5.7,330.0,-9999.0,'1111122,1111122,1111122' 
ENP,ioos.station.NOAA.NDBC:WRBF1:1,2017-04-08T13:00:00Z,25.0720,-80.7350,1.0,6.2,330.0,-9999.0,'1111122,1111122,1111122' 
ENP,ioos.station.NOAA.NDBC:WRBF1:1,2017-04-08T14:00:00Z,25.0720,-80.7350,1.0,3.6,320.0,-9999.0,'1111122,1111122,1111122' 
ENP,ioos.station.NOAA.NDBC:WRBF1:1,2017-04-08T15:00:00Z,25.0720,-80.7350,1.0,2.1,340.0,-9999.0,'1111122,1111122,1111122' 
ENP,ioos.station.NOAA.NDBC:WRBF1:1,2017-04-08T16:00:00Z,25.0720,-80.7350,1.0,2.1,340.0,-9999.0,'1111122,1111122,1111122' 
ENP,ioos.station.NOAA.NDBC:WRBF1:1,2017-04-08T17:00:00Z,25.0720,-80.7350,1.0,1.5,280.0,-9999.0,'1111122,1111122,1111122' 
ENP,ioos.station.NOAA.NDBC:WRBF1:1,2017-04-08T18:00:00Z,25.0720,-80.7350,1.0,1.5,220.0,-9999.0,'1111122,1111122,1111122' 
ENP,ioos.station.NOAA.NDBC:WRBF1:1,2017-04-08T19:00:00Z,25.0720,-80.7350,1.0,1.5,220.0,-9999.0,'1111122,1111122,1111122' 
ENP,ioos.station.NOAA.NDBC:WRBF1:1,2017-04-08T20:00:00Z,25.0720,-80.7350,1.0,2.1,230.0,-9999.0,'1111122,1111122,1111122' 
ENP,ioos.station.NOAA.NDBC:WRBF1:1,2017-04-08T21:00:00Z,25.0720,-80.7350,1.0,3.6,230.0,-9999.0,'1111122,1111122,1111122' 
ENP,ioos.station.NOAA.NDBC:WRBF1:1,2017-04-08T22:00:00Z,25.0720,-80.7350,1.0,3.1,250.0,-9999.0,'1111122,1111122,1111122' 
ENP,ioos.station.NOAA.NDBC:WRBF1:1,2017-04-08T23:00:00Z,25.0720,-80.7350,1.0,3.1,240.0,-9999.0,'1111122,1111122,1111122' 
ENP,ioos.station.NOAA.NDBC:WRBF1:1,2017-04-09T00:00:00Z,25.0720,-80.7350,1.0,4.1,280.0,-9999.0,'1111122,1111122,1111122' 
ENP,ioos.station.NOAA.NDBC:WRBF1:1,2017-04-09T03:00:00Z,25.0720,-80.7350,1.0,6.7,310.0,-9999.0,'1111122,1111122,1111122' 
ENP,ioos.station.NOAA.NDBC:WRBF1:1,2017-04-09T05:00:00Z,25.0720,-80.7350,1.0,7.2,310.0,-9999.0,'1111122,1111122,1111122' 
ENP,ioos.station.NOAA.NDBC:WRBF1:1,2017-04-09T06:00:00Z,25.0720,-80.7350,1.0,6.2,310.0,-9999.0,'1111122,1111122,1111122' 
ENP,ioos.station.NOAA.NDBC:WRBF1:1,2017-04-09T07:00:00Z,25.0720,-80.7350,1.0,5.7,330.0,-9999.0,'1111122,1111122,1111122' 
ENP,ioos.station.NOAA.NDBC:WRBF1:1,2017-04-09T08:00:00Z,25.0720,-80.7350,1.0,5.7,340.0,-9999.0,'1111122,1111122,1111122' 
ENP,ioos.station.NOAA.NDBC:WRBF1:1,2017-04-09T10:00:00Z,25.0720,-80.7350,1.0,3.6,350.0,-9999.0,'1111122,1111122,1111122' 
ENP,ioos.station.NOAA.NDBC:WRBF1:1,2017-04-09T11:00:00Z,25.0720,-80.7350,1.0,3.6,350.0,-9999.0,'1111122,1111122,1111122' 
ENP,ioos.station.NOAA.NDBC:WRBF1:1,2017-04-09T12:00:00Z,25.0720,-80.7350,1.0,2.6,350.0,-9999.0,'1111122,1111122,1111122' 
ENP,ioos.station.NOAA.NDBC:WRBF1:1,2017-04-09T13:00:00Z,25.0720,-80.7350,1.0,1.0,10.0,-9999.0,'1111122,1111122,1111122' 
ENP,ioos.station.NOAA.NDBC:WRBF1:1,2017-04-09T14:00:00Z,25.0720,-80.7350,1.0,3.1,10.0,-9999.0,'1111122,1111122,1111122' 
ENP,ioos.station.NOAA.NDBC:WRBF1:1,2017-04-09T15:00:00Z,25.0720,-80.7350,1.0,4.1,20.0,-9999.0,'1111122,1111122,1111122' 
ENP,ioos.station.NOAA.NDBC:WRBF1:1,2017-04-09T16:00:00Z,25.0720,-80.7350,1.0,3.1,30.0,-9999.0,'1111122,1111122,1111122' 
ENP,ioos.station.NOAA.NDBC:WRBF1:1,2017-04-09T17:00:00Z,25.0720,-80.7350,1.0,2.1,40.0,-9999.0,'1111122,1111122,1111122' 
ENP,ioos.station.NOAA.NDBC:WRBF1:1,2017-04-09T18:00:00Z,25.0720,-80.7350,1.0,1.5,80.0,-9999.0,'1111122,1111122,1111122' 
ENP,ioos.station.NOAA.NDBC:WRBF1:1,2017-04-09T19:00:00Z,25.0720,-80.7350,1.0,2.1,80.0,-9999.0,'1111122,1111122,1111122' 
ENP,ioos.station.NOAA.NDBC:WRBF1:1,2017-04-09T20:00:00Z,25.0720,-80.7350,1.0,5.1,80.0,-9999.0,'1111122,1111122,1111122' 
ENP,ioos.station.NOAA.NDBC:WRBF1:1,2017-04-09T21:00:00Z,25.0720,-80.7350,1.0,2.6,70.0,-9999.0,'1111122,1111122,1111122' 
ENP,ioos.station.NOAA.NDBC:WRBF1:1,2017-04-09T22:00:00Z,25.0720,-80.7350,1.0,1.5,70.0,-9999.0,'1111122,1111122,1111122' 
ENP,ioos.station.NOAA.NDBC:WRBF1:1,2017-04-09T23:00:00Z,25.0720,-80.7350,1.0,4.1,60.0,-9999.0,'1111122,1111122,1111122' 
ENP,ioos.station.NOAA.NDBC:WRBF1:1,2017-04-10T00:00:00Z,25.0720,-80.7350,1.0,6.7,60.0,-9999.0,'1111122,1111122,1111122' 
ENP,ioos.station.NOAA.NDBC:WRBF1:1,2017-04-10T02:00:00Z,25.0720,-80.7350,1.0,7.7,50.0,-9999.0,'1111122,1111122,1111122' 
ENP,ioos.station.NOAA.NDBC:WRBF1:1,2017-04-10T03:00:00Z,25.0720,-80.7350,1.0,7.7,50.0,-9999.0,'1111122,1111122,1111122' 
ENP,ioos.station.NOAA.NDBC:WRBF1:1,2017-04-10T05:00:00Z,25.0720,-80.7350,1.0,6.7,50.0,-9999.0,'1111122,1111122,1111122' 
ENP,ioos.station.NOAA.NDBC:WRBF1:1,2017-04-10T06:00:00Z,25.0720,-80.7350,1.0,6.2,50.0,-9999.0,'1111122,1111122,1111122' 
ENP,ioos.station.NOAA.NDBC:WRBF1:1,2017-04-10T07:00:00Z,25.0720,-80.7350,1.0,5.1,50.0,-9999.0,'1111122,1111122,1111122' 
ENP,ioos.station.NOAA.NDBC:WRBF1:1,2017-04-10T08:00:00Z,25.0720,-80.7350,1.0,4.6,40.0,-9999.0,'1111122,1111122,1111122' 
ENP,ioos.station.NOAA.NDBC:WRBF1:1,2017-04-10T10:00:00Z,25.0720,-80.7350,1.0,3.1,10.0,-9999.0,'1111122,1111122,1111122' 
ENP,ioos.station.NOAA.NDBC:WRBF1:1,2017-04-10T11:00:00Z,25.0720,-80.7350,1.0,4.1,360.0,-9999.0,'1111122,1111122,1111122' 
ENP,ioos.station.NOAA.NDBC:WRBF1:1,2017-04-10T12:00:00Z,25.0720,-80.7350,1.0,4.6,360.0,-9999.0,'1111122,1111122,1111122' 
ENP,ioos.station.NOAA.NDBC:WRBF1:1,2017-04-10T13:00:00Z,25.0720,-80.7350,1.0,4.6,360.0,-9999.0,'1111122,1111122,1111122' 
ENP,ioos.station.NOAA.NDBC:WRBF1:1,2017-04-10T14:00:00Z,25.0720,-80.7350,1.0,3.6,360.0,-9999.0,'1111122,1111122,1111122' 
ENP,ioos.station.NOAA.NDBC:WRBF1:1,2017-04-10T15:00:00Z,25.0720,-80.7350,1.0,4.6,30.0,-9999.0,'1111122,1111122,1111122' 
ENP,ioos.station.NOAA.NDBC:WRBF1:1,2017-04-10T16:00:00Z,25.0720,-80.7350,1.0,3.1,40.0,-9999.0,'1111122,1111122,1111122' 
ENP,ioos.station.NOAA.NDBC:WRBF1:1,2017-04-10T17:00:00Z,25.0720,-80.7350,1.0,1.5,60.0,-9999.0,'1111122,1111122,1111122' 
ENP,ioos.station.NOAA.NDBC:WRBF1:1,2017-04-10T18:00:00Z,25.0720,-80.7350,1.0,1.5,80.0,-9999.0,'1111122,1111122,1111122' 
ENP,ioos.station.NOAA.NDBC:WRBF1:1,2017-04-10T19:00:00Z,25.0720,-80.7350,1.0,1.0,70.0,-9999.0,'1111122,1111122,1111122' 
ENP,ioos.station.NOAA.NDBC:WRBF1:1,2017-04-10T20:00:00Z,25.0720,-80.7350,1.0,1.5,60.0,-9999.0,'1111122,1111122,1111122' 
ENP,ioos.station.NOAA.NDBC:WRBF1:1,2017-04-10T21:00:00Z,25.0720,-80.7350,1.0,6.7,60.0,-9999.0,'1111122,1111122,1111122' 
ENP,ioos.station.NOAA.NDBC:WRBF1:1,2017-04-10T22:00:00Z,25.0720,-80.7350,1.0,4.6,60.0,-9999.0,'1111122,1111122,1111122' 
ENP,ioos.station.NOAA.NDBC:WRBF1:1,2017-04-10T23:00:00Z,25.0720,-80.7350,1.0,4.6,50.0,-9999.0,'1111122,1111122,1111122' 
ENP,ioos.station.NOAA.NDBC:WRBF1:1,2017-04-11T00:00:00Z,25.0720,-80.7350,1.0,8.2,50.0,-9999.0,'1111122,1111122,1111122' 
ENP,ioos.station.NOAA.NDBC:WRBF1:1,2017-04-11T03:00:00Z,25.0720,-80.7350,1.0,7.7,50.0,-9999.0,'1111122,1111122,1111122' 
ENP,ioos.station.NOAA.NDBC:WRBF1:1,2017-04-11T06:00:00Z,25.0720,-80.7350,1.0,6.7,40.0,-9999.0,'1111122,1111122,1111122' 
ENP,ioos.station.NOAA.NDBC:WRBF1:1,2017-04-11T07:00:00Z,25.0720,-80.7350,1.0,7.2,30.0,-9999.0,'1111122,1111122,1111122' 
ENP,ioos.station.NOAA.NDBC:WRBF1:1,2017-04-11T08:00:00Z,25.0720,-80.7350,1.0,6.2,40.0,-9999.0,'1111122,1111122,1111122' 
ENP,ioos.station.NOAA.NDBC:WRBF1:1,2017-04-11T10:00:00Z,25.0720,-80.7350,1.0,5.7,10.0,-9999.0,'1111122,1111122,1111122' 
ENP,ioos.station.NOAA.NDBC:WRBF1:1,2017-04-11T11:00:00Z,25.0720,-80.7350,1.0,6.2,10.0,-9999.0,'1111122,1111122,1111122' 
ENP,ioos.station.NOAA.NDBC:WRBF1:1,2017-04-11T12:00:00Z,25.0720,-80.7350,1.0,5.7,10.0,-9999.0,'1111122,1111122,1111122' 
ENP,ioos.station.NOAA.NDBC:WRBF1:1,2017-04-11T13:00:00Z,25.0720,-80.7350,1.0,3.1,360.0,-9999.0,'1111122,1111122,1111122' 
ENP,ioos.station.NOAA.NDBC:WRBF1:1,2017-04-11T14:00:00Z,25.0720,-80.7350,1.0,2.1,20.0,-9999.0,'1111122,1111122,1111122' 
ENP,ioos.station.NOAA.NDBC:WRBF1:1,2017-04-11T15:00:00Z,25.0720,-80.7350,1.0,2.1,30.0,-9999.0,'1111122,1111122,1111122' 
ENP,ioos.station.NOAA.NDBC:WRBF1:1,2017-04-11T16:00:00Z,25.0720,-80.7350,1.0,2.6,40.0,-9999.0,'1111122,1111122,1111122' 
ENP,ioos.station.NOAA.NDBC:WRBF1:1,2017-04-11T17:00:00Z,25.0720,-80.7350,1.0,2.1,30.0,-9999.0,'1111122,1111122,1111122' 
ENP,ioos.station.NOAA.NDBC:WRBF1:1,2017-04-11T18:00:00Z,25.0720,-80.7350,1.0,1.5,60.0,-9999.0,'1111122,1111122,1111122' 
ENP,ioos.station.NOAA.NDBC:WRBF1:1,2017-04-11T19:00:00Z,25.0720,-80.7350,1.0,2.1,60.0,-9999.0,'1111122,1111122,1111122' 
ENP,ioos.station.NOAA.NDBC:WRBF1:1,2017-04-11T20:00:00Z,25.0720,-80.7350,1.0,5.1,60.0,-9999.0,'1111122,1111122,1111122' 
ENP,ioos.station.NOAA.NDBC:WRBF1:1,2017-04-11T21:00:00Z,25.0720,-80.7350,1.0,6.2,60.0,-9999.0,'1111122,1111122,1111122' 
ENP,ioos.station.NOAA.NDBC:WRBF1:1,2017-04-11T22:00:00Z,25.0720,-80.7350,1.0,6.2,60.0,-9999.0,'1111122,1111122,1111122' 
ENP,ioos.station.NOAA.NDBC:WRBF1:1,2017-04-11T23:00:00Z,25.0720,-80.7350,1.0,6.7,50.0,-9999.0,'1111122,1111122,1111122' 
ENP,ioos.station.NOAA.NDBC:WRBF1:1,2017-04-12T00:00:00Z,25.0720,-80.7350,1.0,8.2,50.0,-9999.0,'1111122,1111122,1111122' 
ENP,ioos.station.NOAA.NDBC:WRBF1:1,2017-04-12T03:00:00Z,25.0720,-80.7350,1.0,8.8,50.0,-9999.0,'1111122,1111122,1111122' 
ENP,ioos.station.NOAA.NDBC:WRBF1:1,2017-04-12T06:00:00Z,25.0720,-80.7350,1.0,5.7,30.0,-9999.0,'1111122,1111122,1111122' 
ENP,ioos.station.NOAA.NDBC:WRBF1:1,2017-04-12T07:00:00Z,25.0720,-80.7350,1.0,5.1,10.0,-9999.0,'1111122,1111122,1111122' 
ENP,ioos.station.NOAA.NDBC:WRBF1:1,2017-04-12T08:00:00Z,25.0720,-80.7350,1.0,5.7,360.0,-9999.0,'1111122,1111122,1111122' 
ENP,ioos.station.NOAA.NDBC:WRBF1:1,2017-04-12T10:00:00Z,25.0720,-80.7350,1.0,6.2,360.0,-9999.0,'1111122,1111122,1111122' 
ENP,ioos.station.NOAA.NDBC:WRBF1:1,2017-04-12T11:00:00Z,25.0720,-80.7350,1.0,6.7,360.0,-9999.0,'1111122,1111122,1111122' 
ENP,ioos.station.NOAA.NDBC:WRBF1:1,2017-04-12T12:00:00Z,25.0720,-80.7350,1.0,6.7,360.0,-9999.0,'1111122,1111122,1111122' 
ENP,ioos.station.NOAA.NDBC:WRBF1:1,2017-04-12T13:00:00Z,25.0720,-80.7350,1.0,6.7,350.0,-9999.0,'1111122,1111122,1111122' 
ENP,ioos.station.NOAA.NDBC:WRBF1:1,2017-04-12T14:00:00Z,25.0720,-80.7350,1.0,3.1,340.0,-9999.0,'1111122,1111122,1111122' 
ENP,ioos.station.NOAA.NDBC:WRBF1:1,2017-04-12T15:00:00Z,25.0720,-80.7350,1.0,2.1,360.0,-9999.0,'1111122,1111122,1111122' 
ENP,ioos.station.NOAA.NDBC:WRBF1:1,2017-04-12T16:00:00Z,25.0720,-80.7350,1.0,2.6,20.0,-9999.0,'1111122,1111122,1111122' 
ENP,ioos.station.NOAA.NDBC:WRBF1:1,2017-04-12T17:00:00Z,25.0720,-80.7350,1.0,2.1,60.0,-9999.0,'1111122,1111122,1111122' 
ENP,ioos.station.NOAA.NDBC:WRBF1:1,2017-04-12T18:00:00Z,25.0720,-80.7350,1.0,1.0,70.0,-9999.0,'1111122,1111122,1111122' 
ENP,ioos.station.NOAA.NDBC:WRBF1:1,2017-04-12T19:00:00Z,25.0720,-80.7350,1.0,1.5,70.0,-9999.0,'1111122,1111122,1111122' 